Location: Muenchen
(48.1800°N, 11.5800°E)
Time: 01:17:37
(UTC+02:00)

Cosmos 1455 - Visible Passes

Search period start: 25 May 2015 00:00
Search period end: 04 June 2015 00:00
Orbit: 509 x 536 km, 82.5° (Epoch: 24 May)

Date Brightness Start Highest point End Pass type
(mag) Time Alt. Az. Time Alt. Az. Time Alt. Az.
25 May 5.3 02:21:31 10° NE 02:22:20 11° ENE 02:23:21 10° ENE visible
25 May 2.2 03:54:57 10° NNW 03:58:51 78° W 04:02:45 10° S visible
26 May 2.2 03:42:05 10° N 03:46:00 89° W 03:49:55 10° S visible
27 May 2.3 03:29:13 10° N 03:33:08 80° E 03:36:48 12° SSE visible
28 May 2.5 03:16:22 10° N 03:20:16 70° E 03:23:37 14° SSE visible
29 May 2.7 03:03:30 10° N 03:07:23 61° ENE 03:10:28 16° SSE visible
29 May 4.4 04:41:08 10° WNW 04:42:48 12° W 04:44:18 10° WSW visible
30 May 2.9 02:50:39 10° N 02:54:30 54° ENE 02:57:21 17° SSE visible
30 May 4.3 04:27:53 10° NW 04:29:59 14° W 04:31:55 10° WSW visible
31 May 3.1 02:37:48 10° N 02:41:36 47° ENE 02:44:16 18° SE visible
31 May 4.1 04:14:44 10° NW 04:17:09 15° W 04:19:23 10° WSW visible
01 Jun 3.3 02:24:57 10° N 02:28:42 41° ENE 02:31:12 19° SE visible
01 Jun 4.0 04:01:37 10° NW 04:04:18 17° W 04:06:19 12° WSW visible
02 Jun 3.5 02:12:07 10° N 02:15:47 37° ENE 02:18:09 19° SE visible
02 Jun 3.9 03:48:33 10° NW 03:51:27 20° W 03:53:17 14° WSW visible
03 Jun 3.7 01:59:18 10° N 02:02:51 32° ENE 02:05:07 19° SE visible
03 Jun 3.7 03:35:30 10° NW 03:38:36 22° W 03:40:14 17° WSW visible
